Location: Newark
(49.3000°N, 9.4667°E)
Time: 10:58:27
(UTC+00:00)

Tiros 1 - Pass Details

Date: 01 June 2019
Orbit: 631 x 664 km, 48.4° (Epoch: 18 June)

Event Time Altitude Azimuth Distance (km) Brightness Sun altitude
Rises 12:24:14 0° 282° (WNW) 2,937 10.7 59.9°
Reaches altitude 10° 12:26:50 10° 270° (W) 2,031 10.1 59.7°
Maximum altitude 12:30:42 26° 214° (SW) 1,263 9.8 59.4°
Drops below altitude 10° 12:34:36 10° 158° (SSE) 2,041 10.1 59.0°
Sets 12:37:14 0° 146° (SE) 2,954 10.7 58.8°
